Regional Weather Roundup
Issued by NWS

Home | Current Version | Previous Version | Text Only | Print | Product List | Glossary On
Versions: 1 2 3 4 5 6 7 8 9 10 11 12 13 14 15 16 17 18 19 20 21 22 23 24 25 26 27 28 29 30 31 32 33 34 35 36 37 38 39 40 41 42 43 44 45 46 47 48 49 50
000
ASUS43 KLSX 040910
RWRMO

WEATHER SUMMARY FOR MISSOURI
NATIONAL WEATHER SERVICE SPRINGFIELD MO
300 AM CST SUN DEC 04 2016

NOTE: "FAIR" INDICATES FEW OR NO CLOUDS BELOW 12,000 FEET WITH NO
       SIGNIFICANT WEATHER AND/OR OBSTRUCTIONS TO VISIBILITY.
       CURRENT SKY AND/OR WEATHER CONDITIONS ARE NOT AVAILABLE FOR
       CHILLICOTHE AND FARMINGTON.

MOZ001>031-035>038-043-044-053-054-041000-
...NORTHERN AND WESTERN MISSOURI...

CITY           SKY/WX    TMP DP  RH WIND       PRES   REMARKS
KANSAS CTY INT LGT RAIN  40  37  89 SE6       30.04F FOG
KANSAS C DTWN  LGT RAIN  41  39  93 SE9       30.05F
LEE`S SUMMIT   LGT RAIN  39  37  92 SE12      30.05F
ST JOSEPH      LGT RAIN  40  39  97 SE6       30.06F FOG
CHILLICOTHE      N/A     39  36  89 SE6       30.10F
KIRKSVILLE     MIX PCPN  37  35  92 SE9       30.12F FOG

$$
MOZ066>068-077>081-088>096-101>105-041000-
...SOUTHWEST MISSOURI...

CITY           SKY/WX    TMP DP  RH WIND       PRES   REMARKS
SPRINGFIELD    CLOUDY    39  36  89 SE13      30.03S
JOPLIN         LGT RAIN  40  40 100 E7        30.04F FOG
BRANSON        LGT RAIN  37  37 100 SE12      30.05R WCI  30

$$
MOZ032>034-039>042-045>050-055>058-069>072-041000-
...CENTRAL MISSOURI...

CITY           SKY/WX    TMP DP  RH WIND       PRES   REMARKS
COLUMBIA       LGT RAIN  37  35  92 E7        30.10F
JEFFERSON CITY CLOUDY    39  35  86 E5        30.11F
ROLLA          CLOUDY    36  35  96 E8        30.06F FOG     WCI  30
SEDALIA        LGT RAIN  39  37  92 E6        30.10S
WHITEMAN AFB   LGT RAIN  39  39 100 SE5       30.07F FOG
WARRENSBURG    LGT RAIN  37  36  93 E5        30.08F
OSAGE BEACH    MIX PCPN  37  36  96 E5        30.09F

$$
MOZ051-052-059>065-041000-
...EAST CENTRAL MISSOURI...

CITY           SKY/WX    TMP DP  RH WIND       PRES   REMARKS
ST LOUIS INTL  LGT RAIN  41  32  70 E10       30.15F
SPIRIT OF STL  LGT RAIN  40  34  79 E3        30.15S
ST CHARLES     CLOUDY    39  35  86 E9        30.16S

$$
MOZ072>076-082>087-097>100-106>115-041000-
...SOUTH CENTRAL AND SOUTHEAST MISSOURI...

CITY           SKY/WX    TMP DP  RH WIND       PRES   REMARKS
CAPE GIRARDEAU CLOUDY    39  35  86 E8        30.14F
FARMINGTON     CLOUDY    36  35  96 E5        30.12F
POPLAR BLUFF   LGT RAIN  39  38  96 NE7       30.13F FOG
WEST PLAINS    CLOUDY    37  35  92 E9        30.06F

$$




USA.gov is the U.S. government's official web portal to all federal, state and local government web resources and services.